Location: Newark
(44.0160°N, 116.9215°W)
Time: 18:25:35
(UTC+00:00)

Envisat - Visible Passes

Search period start: 19 November 2019 00:00
Search period end: 29 November 2019 00:00
Orbit: 764 x 766 km, 98.1° (Epoch: 19 November)

Date Brightness Start Highest point End Pass type
(mag) Time Alt. Az. Time Alt. Az. Time Alt. Az.
19 Nov 4.0 02:15:08 10° S 02:20:02 48° W 02:24:57 10° NNW visible
20 Nov 2.9 01:38:08 10° SSE 01:43:12 80° ENE 01:48:19 10° N visible
20 Nov 6.1 03:20:36 10° WSW 03:22:50 13° W 03:25:05 10° WNW visible
20 Nov 5.6 13:46:11 10° NE 13:50:20 25° E 13:54:27 10° SSE visible
21 Nov 3.5 01:01:56 10° SE 01:06:35 38° ENE 01:11:15 10° N visible
21 Nov 5.0 02:41:21 10° SSW 02:45:40 28° W 02:50:01 10° NW visible
21 Nov 6.4 13:11:42 10° ENE 13:13:08 11° E 13:14:34 10° ESE visible
22 Nov 3.5 02:03:43 10° S 02:08:43 60° W 02:13:46 10° NNW visible
22 Nov 4.5 14:11:10 10° NNE 14:16:00 42° E 14:20:48 10° S visible
23 Nov 2.9 01:26:57 10° SSE 01:31:57 64° ENE 01:37:00 10° N visible
23 Nov 5.8 03:08:17 10° SW 03:11:25 16° W 03:14:35 10° NW visible
23 Nov 5.9 13:35:16 10° NE 13:38:57 20° E 13:42:37 10° SE visible
24 Nov 3.7 00:51:00 10° SE 00:55:24 31° ENE 00:59:48 10° N visible
24 Nov 4.6 02:29:43 10° SSW 02:34:20 35° W 02:38:59 10° NNW visible
25 Nov 3.1 01:52:21 10° S 01:57:25 76° WSW 02:02:32 10° NNW visible
25 Nov 5.0 14:00:04 10° NNE 14:04:40 33° E 14:09:14 10° SSE visible
26 Nov 3.1 01:15:50 10° SE 01:20:43 51° ENE 01:25:39 10° N visible
26 Nov 5.5 02:56:17 10° SW 03:00:01 21° W 03:03:47 10° NW visible
26 Nov 6.0 13:24:31 10° NE 13:27:33 16° E 13:30:34 10° SE visible
27 Nov 4.0 00:40:09 10° ESE 00:44:13 25° ENE 00:48:19 10° N visible
27 Nov 4.2 02:18:10 10° S 02:22:59 44° W 02:27:51 10° NNW visible
27 Nov 3.8 14:25:15 10° NNE 14:30:17 58° E 14:35:16 10° S visible
28 Nov 2.9 01:41:04 10° SSE 01:46:09 87° ENE 01:51:16 10° NNW visible
28 Nov 6.1 03:24:07 10° WSW 03:25:51 12° W 03:27:34 10° WNW visible
28 Nov 5.4 13:49:01 10° NE 13:53:19 27° E 13:57:35 10° SSE visible
